Year,Month,Day,Hour,Minute,Value (Times are PST for temperature in C)
2006,06,26,00,00,18.20
2006,06,26,00,01,18.20
2006,06,26,00,02,18.20
2006,06,26,00,03,18.20
2006,06,26,00,04,18.10
2006,06,26,00,05,18.10
2006,06,26,00,06,18.10
2006,06,26,00,07,18.10
2006,06,26,00,08,18.10
2006,06,26,00,09,18.00
2006,06,26,00,10,17.90
2006,06,26,00,11,17.90
2006,06,26,00,12,17.90
2006,06,26,00,13,17.90
2006,06,26,00,14,17.90
2006,06,26,00,15,17.90
2006,06,26,00,16,17.90
2006,06,26,00,17,17.90
2006,06,26,00,18,17.80
2006,06,26,00,19,17.80
2006,06,26,00,20,17.80
2006,06,26,00,21,17.80
2006,06,26,00,22,17.70
2006,06,26,00,23,17.70
2006,06,26,00,24,17.70
2006,06,26,00,25,17.70
2006,06,26,00,26,17.70
2006,06,26,00,27,17.60
2006,06,26,00,28,17.60
2006,06,26,00,29,17.60
2006,06,26,00,30,17.60
2006,06,26,00,31,17.60
2006,06,26,00,32,17.50
2006,06,26,00,33,17.50
2006,06,26,00,34,17.50
2006,06,26,00,35,17.50
2006,06,26,00,36,17.50
2006,06,26,00,37,17.50
2006,06,26,00,38,17.50
2006,06,26,00,39,17.50
2006,06,26,00,40,17.40
2006,06,26,00,41,17.40
2006,06,26,00,42,17.40
2006,06,26,00,43,17.40
2006,06,26,00,44,17.40
2006,06,26,00,45,17.30
2006,06,26,00,46,17.30
2006,06,26,00,47,17.30
2006,06,26,00,48,17.30
2006,06,26,00,49,17.30
2006,06,26,00,50,17.30
2006,06,26,00,51,17.30
2006,06,26,00,52,17.30
2006,06,26,00,53,17.30
2006,06,26,00,54,17.30
2006,06,26,00,55,17.20
2006,06,26,00,56,17.20
2006,06,26,00,57,17.20
2006,06,26,00,58,17.20
2006,06,26,00,59,17.10
2006,06,26,01,00,17.10
2006,06,26,01,01,17.10
2006,06,26,01,02,17.10
2006,06,26,01,03,17.00
2006,06,26,01,04,17.00
2006,06,26,01,05,17.00
2006,06,26,01,06,17.00
2006,06,26,01,07,17.00
2006,06,26,01,08,17.00
2006,06,26,01,09,17.00
2006,06,26,01,10,17.00
2006,06,26,01,11,16.90
2006,06,26,01,12,16.90
2006,06,26,01,13,16.90
2006,06,26,01,14,16.90
2006,06,26,01,15,16.90
2006,06,26,01,16,16.90
2006,06,26,01,17,16.90
2006,06,26,01,18,16.80
2006,06,26,01,19,16.80
2006,06,26,01,20,16.80
2006,06,26,01,21,16.80
2006,06,26,01,22,16.80
2006,06,26,01,23,16.80
2006,06,26,01,24,16.70
2006,06,26,01,25,16.70
2006,06,26,01,26,16.70
2006,06,26,01,27,16.70
2006,06,26,01,28,16.70
2006,06,26,01,29,16.70
2006,06,26,01,30,16.70
2006,06,26,01,31,16.70
2006,06,26,01,32,16.70
2006,06,26,01,33,16.70
2006,06,26,01,34,16.70
2006,06,26,01,35,16.70
2006,06,26,01,36,16.70
2006,06,26,01,37,16.70
2006,06,26,01,38,16.70
2006,06,26,01,39,16.70
2006,06,26,01,40,16.70
2006,06,26,01,41,16.70
2006,06,26,01,42,16.70
2006,06,26,01,43,16.70
2006,06,26,01,44,16.70
2006,06,26,01,45,16.70
2006,06,26,01,46,16.70
2006,06,26,01,47,16.70
2006,06,26,01,48,16.70
2006,06,26,01,49,16.60
2006,06,26,01,50,16.60
2006,06,26,01,51,16.60
2006,06,26,01,52,16.60
2006,06,26,01,53,16.60
2006,06,26,01,54,16.60
2006,06,26,01,55,16.50
2006,06,26,01,56,16.40
2006,06,26,01,57,16.40
2006,06,26,01,58,16.40
2006,06,26,01,59,16.40
2006,06,26,02,00,16.40
2006,06,26,02,01,16.40
2006,06,26,02,02,16.40
2006,06,26,02,03,16.40
2006,06,26,02,04,16.40
2006,06,26,02,05,16.30
2006,06,26,02,06,16.30
2006,06,26,02,07,16.30
2006,06,26,02,08,16.30
2006,06,26,02,09,16.20
2006,06,26,02,10,16.20
2006,06,26,02,11,16.20
2006,06,26,02,12,16.20
2006,06,26,02,13,16.20
2006,06,26,02,14,16.20
2006,06,26,02,15,16.10
2006,06,26,02,16,16.10
2006,06,26,02,17,16.10
2006,06,26,02,18,16.10
2006,06,26,02,19,16.10
2006,06,26,02,20,16.10
2006,06,26,02,21,16.10
2006,06,26,02,22,16.10
2006,06,26,02,23,16.10
2006,06,26,02,24,16.10
2006,06,26,02,25,15.90
2006,06,26,02,26,15.90
2006,06,26,02,27,15.90
2006,06,26,02,28,15.90
2006,06,26,02,29,15.80
2006,06,26,02,30,15.80
2006,06,26,02,31,15.80
2006,06,26,02,32,15.80
2006,06,26,02,33,15.80
2006,06,26,02,34,15.80
2006,06,26,02,35,15.80
2006,06,26,02,36,15.70
2006,06,26,02,37,15.70
2006,06,26,02,38,15.70
2006,06,26,02,39,15.70
2006,06,26,02,40,15.60
2006,06,26,02,41,15.60
2006,06,26,02,42,15.60
2006,06,26,02,43,15.60
2006,06,26,02,44,15.50
2006,06,26,02,45,15.50
2006,06,26,02,46,15.50
2006,06,26,02,47,15.50
2006,06,26,02,48,15.50
2006,06,26,02,49,15.50
2006,06,26,02,50,15.50
2006,06,26,02,51,15.60
2006,06,26,02,52,15.60
2006,06,26,02,53,15.60
2006,06,26,02,54,15.60
2006,06,26,02,55,15.60
2006,06,26,02,56,15.60
2006,06,26,02,57,15.60
2006,06,26,02,58,15.60
2006,06,26,02,59,15.60
2006,06,26,03,00,15.60
2006,06,26,03,01,15.60
2006,06,26,03,02,15.50
2006,06,26,03,03,15.50
2006,06,26,03,04,15.60
2006,06,26,03,05,15.60
2006,06,26,03,06,15.60
2006,06,26,03,07,15.60
2006,06,26,03,08,15.60
2006,06,26,03,09,15.60
2006,06,26,03,10,15.60
2006,06,26,03,11,15.60
2006,06,26,03,12,15.60
2006,06,26,03,13,15.50
2006,06,26,03,14,15.50
2006,06,26,03,15,15.50
2006,06,26,03,16,15.50
2006,06,26,03,17,15.50
2006,06,26,03,18,15.50
2006,06,26,03,19,15.50
2006,06,26,03,20,15.50
2006,06,26,03,21,15.40
2006,06,26,03,22,15.40
2006,06,26,03,23,15.40
2006,06,26,03,24,15.40
2006,06,26,03,25,15.30
2006,06,26,03,26,15.30
2006,06,26,03,27,15.30
2006,06,26,03,28,15.30
2006,06,26,03,29,15.30
2006,06,26,03,30,15.30
2006,06,26,03,31,15.30
2006,06,26,03,32,15.30
2006,06,26,03,33,15.30
2006,06,26,03,34,15.30
2006,06,26,03,35,15.30
2006,06,26,03,36,15.30
2006,06,26,03,37,15.30
2006,06,26,03,38,15.30
2006,06,26,03,39,15.20
2006,06,26,03,40,15.20
2006,06,26,03,41,15.20
2006,06,26,03,42,15.10
2006,06,26,03,43,15.10
2006,06,26,03,44,15.10
2006,06,26,03,45,15.00
2006,06,26,03,46,15.00
2006,06,26,03,47,15.00
2006,06,26,03,48,15.00
2006,06,26,03,49,14.90
2006,06,26,03,50,14.90
2006,06,26,03,51,14.90
2006,06,26,03,52,14.90
2006,06,26,03,53,14.80
2006,06,26,03,54,14.80
2006,06,26,03,55,14.80
2006,06,26,03,56,14.80
2006,06,26,03,57,14.80
2006,06,26,03,58,14.80
2006,06,26,03,59,14.80
2006,06,26,04,00,14.80
2006,06,26,04,01,14.80
2006,06,26,04,02,14.80
2006,06,26,04,03,14.70
2006,06,26,04,04,14.70
2006,06,26,04,05,14.70
2006,06,26,04,06,14.70
2006,06,26,04,07,14.70
2006,06,26,04,08,14.70
2006,06,26,04,09,14.70
2006,06,26,04,10,14.70
2006,06,26,04,11,14.60
2006,06,26,04,12,14.60
2006,06,26,04,13,14.60
2006,06,26,04,14,14.60
2006,06,26,04,15,14.60
2006,06,26,04,16,14.60
2006,06,26,04,17,14.60
2006,06,26,04,18,14.60
2006,06,26,04,19,14.60
2006,06,26,04,20,14.60
2006,06,26,04,21,14.60
2006,06,26,04,22,14.60
2006,06,26,04,23,14.60
2006,06,26,04,24,14.60
2006,06,26,04,25,14.50
2006,06,26,04,26,14.50
2006,06,26,04,27,14.50
2006,06,26,04,28,14.50
2006,06,26,04,29,14.50
2006,06,26,04,30,14.50
2006,06,26,04,31,14.50
2006,06,26,04,32,14.50
2006,06,26,04,33,14.50
2006,06,26,04,34,14.40
2006,06,26,04,35,14.40
2006,06,26,04,36,14.40
2006,06,26,04,37,14.30
2006,06,26,04,38,14.30
2006,06,26,04,39,14.30
2006,06,26,04,40,14.30
2006,06,26,04,41,14.30
2006,06,26,04,42,14.30
2006,06,26,04,43,14.30
2006,06,26,04,44,14.30
2006,06,26,04,45,14.30
2006,06,26,04,46,14.30
2006,06,26,04,47,14.30
2006,06,26,04,48,14.30
2006,06,26,04,49,14.30
2006,06,26,04,50,14.30
2006,06,26,04,51,14.30
2006,06,26,04,52,14.30
2006,06,26,04,53,14.30
2006,06,26,04,54,14.30
2006,06,26,04,55,14.30
2006,06,26,04,56,14.30
2006,06,26,04,57,14.30
2006,06,26,04,58,14.30
2006,06,26,04,59,14.30
2006,06,26,05,00,14.30
2006,06,26,05,01,14.20
2006,06,26,05,02,14.20
2006,06,26,05,03,14.20
2006,06,26,05,04,14.20
2006,06,26,05,05,14.20
2006,06,26,05,06,14.20
2006,06,26,05,07,14.20
2006,06,26,05,08,14.20
2006,06,26,05,09,14.20
2006,06,26,05,10,14.20
2006,06,26,05,11,14.20
2006,06,26,05,12,14.20
2006,06,26,05,13,14.20
2006,06,26,05,14,14.20
2006,06,26,05,15,14.20
2006,06,26,05,16,14.20
2006,06,26,05,17,14.20
2006,06,26,05,18,14.20
2006,06,26,05,19,14.20
2006,06,26,05,20,14.20
2006,06,26,05,21,14.10
2006,06,26,05,22,14.10
2006,06,26,05,23,14.10
2006,06,26,05,24,14.10
2006,06,26,05,25,14.10
2006,06,26,05,26,14.10
2006,06,26,05,27,14.10
2006,06,26,05,28,14.10
2006,06,26,05,29,14.00
2006,06,26,05,30,14.00
2006,06,26,05,31,14.00
2006,06,26,05,32,14.00
2006,06,26,05,33,14.00
2006,06,26,05,34,14.00
2006,06,26,05,35,14.00
2006,06,26,05,36,14.00
2006,06,26,05,37,14.00
2006,06,26,05,38,14.00
2006,06,26,05,39,14.00
2006,06,26,05,40,14.00
2006,06,26,05,41,14.00
2006,06,26,05,42,14.10
2006,06,26,05,43,14.10
2006,06,26,05,44,14.10
2006,06,26,05,45,14.10
2006,06,26,05,46,14.10
2006,06,26,05,47,14.10
2006,06,26,05,48,14.10
2006,06,26,05,49,14.10
2006,06,26,05,50,14.10
2006,06,26,05,51,14.10
2006,06,26,05,52,14.10
2006,06,26,05,53,14.00
2006,06,26,05,54,14.00
2006,06,26,05,55,14.10
2006,06,26,05,56,14.10
2006,06,26,05,57,14.10
2006,06,26,05,58,14.10
2006,06,26,05,59,14.10
2006,06,26,06,00,14.10
2006,06,26,06,01,14.20
2006,06,26,06,02,14.20
2006,06,26,06,03,14.20
2006,06,26,06,04,14.20
2006,06,26,06,05,14.20
2006,06,26,06,06,14.30
2006,06,26,06,07,14.40
2006,06,26,06,08,14.40
2006,06,26,06,09,14.50
2006,06,26,06,10,14.50
2006,06,26,06,11,14.60
2006,06,26,06,12,14.60
2006,06,26,06,13,14.70
2006,06,26,06,14,14.70
2006,06,26,06,15,14.80
2006,06,26,06,16,14.80
2006,06,26,06,17,14.90
2006,06,26,06,18,14.90
2006,06,26,06,19,15.00
2006,06,26,06,20,15.10
2006,06,26,06,21,15.10
2006,06,26,06,22,15.20
2006,06,26,06,23,15.30
2006,06,26,06,24,15.30
2006,06,26,06,25,15.30
2006,06,26,06,26,15.40
2006,06,26,06,27,15.50
2006,06,26,06,28,15.50
2006,06,26,06,29,15.60
2006,06,26,06,30,15.70
2006,06,26,06,31,15.80
2006,06,26,06,32,15.90
2006,06,26,06,33,16.10
2006,06,26,06,34,16.10
2006,06,26,06,35,16.20
2006,06,26,06,36,16.30
2006,06,26,06,37,16.40
2006,06,26,06,38,16.40
2006,06,26,06,39,16.50
2006,06,26,06,40,16.60
2006,06,26,06,41,16.70
2006,06,26,06,42,16.70
2006,06,26,06,43,16.70
2006,06,26,06,44,16.80
2006,06,26,06,45,16.80
2006,06,26,06,46,16.90
2006,06,26,06,47,16.90
2006,06,26,06,48,16.90
2006,06,26,06,49,17.00
2006,06,26,06,50,17.20
2006,06,26,06,51,17.30
2006,06,26,06,52,17.30
2006,06,26,06,53,17.40
2006,06,26,06,54,17.50
2006,06,26,06,55,17.60
2006,06,26,06,56,17.70
2006,06,26,06,57,17.80
2006,06,26,06,58,17.90
2006,06,26,06,59,17.90
2006,06,26,07,00,18.00
2006,06,26,07,01,18.10
2006,06,26,07,02,18.20
2006,06,26,07,03,18.20
2006,06,26,07,04,18.20
2006,06,26,07,05,18.30
2006,06,26,07,06,18.30
2006,06,26,07,07,18.40
2006,06,26,07,08,18.40
2006,06,26,07,09,18.50
2006,06,26,07,10,18.50
2006,06,26,07,11,18.60
2006,06,26,07,12,18.60
2006,06,26,07,13,18.70
2006,06,26,07,14,18.90
2006,06,26,07,15,18.90
2006,06,26,07,16,18.90
2006,06,26,07,17,19.00
2006,06,26,07,18,19.10
2006,06,26,07,19,19.10
2006,06,26,07,20,19.20
2006,06,26,07,21,19.30
2006,06,26,07,22,19.30
2006,06,26,07,23,19.40
2006,06,26,07,24,19.40
2006,06,26,07,25,19.60
2006,06,26,07,26,19.60
2006,06,26,07,27,19.80
2006,06,26,07,28,19.90
2006,06,26,07,29,20.00
2006,06,26,07,30,20.20
2006,06,26,07,31,20.30
2006,06,26,07,32,20.40
2006,06,26,07,33,20.60
2006,06,26,07,34,20.60
2006,06,26,07,35,20.70
2006,06,26,07,36,20.80
2006,06,26,07,37,20.80
2006,06,26,07,38,20.90
2006,06,26,07,39,20.90
2006,06,26,07,40,21.00
2006,06,26,07,41,21.00
2006,06,26,07,42,21.00
2006,06,26,07,43,21.10
2006,06,26,07,44,21.10
2006,06,26,07,45,21.20
2006,06,26,07,46,21.30
2006,06,26,07,47,21.30
2006,06,26,07,48,21.30
2006,06,26,07,49,21.40
2006,06,26,07,50,21.40
2006,06,26,07,51,21.60
2006,06,26,07,52,21.60
2006,06,26,07,53,21.60
2006,06,26,07,54,21.70
2006,06,26,07,55,21.80
2006,06,26,07,56,21.90
2006,06,26,07,57,22.00
2006,06,26,07,58,22.00
2006,06,26,07,59,22.10
2006,06,26,08,00,22.20
2006,06,26,08,01,22.30
2006,06,26,08,02,22.40
2006,06,26,08,03,22.50
2006,06,26,08,04,22.60
2006,06,26,08,05,22.70
2006,06,26,08,06,22.90
2006,06,26,08,07,22.90
2006,06,26,08,08,23.10
2006,06,26,08,09,23.20
2006,06,26,08,10,23.40
2006,06,26,08,11,23.60
2006,06,26,08,12,23.70
2006,06,26,08,13,23.90
2006,06,26,08,14,24.00
2006,06,26,08,15,24.10
2006,06,26,08,16,24.30
2006,06,26,08,17,24.50
2006,06,26,08,18,24.60
2006,06,26,08,19,24.80
2006,06,26,08,20,24.90
2006,06,26,08,21,25.10
2006,06,26,08,22,25.30
2006,06,26,08,23,25.40
2006,06,26,08,24,25.50
2006,06,26,08,25,25.60
2006,06,26,08,26,25.60
2006,06,26,08,27,25.70
2006,06,26,08,28,25.70
2006,06,26,08,29,25.80
2006,06,26,08,30,25.90
2006,06,26,08,31,25.90
2006,06,26,08,32,26.00
2006,06,26,08,33,26.10
2006,06,26,08,34,26.20
2006,06,26,08,35,26.20
2006,06,26,08,36,26.20
2006,06,26,08,37,26.30
2006,06,26,08,38,26.40
2006,06,26,08,39,26.40
2006,06,26,08,40,26.40
2006,06,26,08,41,26.40
2006,06,26,08,42,26.50
2006,06,26,08,43,26.60
2006,06,26,08,44,26.60
2006,06,26,08,45,26.60
2006,06,26,08,46,26.70
2006,06,26,08,47,26.80
2006,06,26,08,48,26.90
2006,06,26,08,49,27.00
2006,06,26,08,50,27.10
2006,06,26,08,51,27.20
2006,06,26,08,52,27.30
2006,06,26,08,53,27.20
2006,06,26,08,54,26.70
2006,06,26,08,55,26.60
2006,06,26,08,56,25.70
2006,06,26,08,57,25.30
2006,06,26,08,58,25.20
2006,06,26,08,59,25.20
2006,06,26,09,00,25.00
2006,06,26,09,01,25.00
2006,06,26,09,02,25.00
2006,06,26,09,03,25.00
2006,06,26,09,04,24.90
2006,06,26,09,05,24.90
2006,06,26,09,06,24.90
2006,06,26,09,07,24.80
2006,06,26,09,08,24.60
2006,06,26,09,09,24.60
2006,06,26,09,10,24.50
2006,06,26,09,11,24.40
2006,06,26,09,12,24.20
2006,06,26,09,13,24.10
2006,06,26,09,14,24.00
2006,06,26,09,15,23.90
2006,06,26,09,16,24.00
2006,06,26,09,17,24.00
2006,06,26,09,18,24.00
2006,06,26,09,19,24.10
2006,06,26,09,20,24.10
2006,06,26,09,21,24.20
2006,06,26,09,22,24.30
2006,06,26,09,23,24.30
2006,06,26,09,24,24.30
2006,06,26,09,25,24.30
2006,06,26,09,26,24.30
2006,06,26,09,27,24.30
2006,06,26,09,28,24.20
2006,06,26,09,29,24.10
2006,06,26,09,30,23.90
2006,06,26,09,31,23.90
2006,06,26,09,32,24.00
2006,06,26,09,33,24.10
2006,06,26,09,34,24.20
2006,06,26,09,35,24.40
2006,06,26,09,36,24.50
2006,06,26,09,37,24.60
2006,06,26,09,38,24.70
2006,06,26,09,39,24.80
2006,06,26,09,40,24.90
2006,06,26,09,41,24.90
2006,06,26,09,42,25.10
2006,06,26,09,43,25.20
2006,06,26,09,44,25.30
2006,06,26,09,45,25.40
2006,06,26,09,46,25.50
2006,06,26,09,47,25.60
2006,06,26,09,48,25.70
2006,06,26,09,49,25.80
2006,06,26,09,50,25.80
2006,06,26,09,51,25.80
2006,06,26,09,52,25.90
2006,06,26,09,53,25.90
2006,06,26,09,54,25.70
2006,06,26,09,55,25.60
2006,06,26,09,56,25.50
2006,06,26,09,57,25.50
2006,06,26,09,58,25.60
2006,06,26,09,59,25.60
2006,06,26,10,00,25.70
2006,06,26,10,01,25.80
2006,06,26,10,02,25.90
2006,06,26,10,03,26.00
2006,06,26,10,04,26.10
2006,06,26,10,05,26.10
2006,06,26,10,06,26.10
2006,06,26,10,07,26.00
2006,06,26,10,08,26.00
2006,06,26,10,09,26.00
2006,06,26,10,10,26.00
2006,06,26,10,11,26.10
2006,06,26,10,12,26.10
2006,06,26,10,13,26.10
2006,06,26,10,14,26.00
2006,06,26,10,15,25.90
2006,06,26,10,16,25.80
2006,06,26,10,17,25.60
2006,06,26,10,18,25.50
2006,06,26,10,19,25.50
2006,06,26,10,20,25.60
2006,06,26,10,21,25.80
2006,06,26,10,22,25.90
2006,06,26,10,23,26.00
2006,06,26,10,24,26.10
2006,06,26,10,25,26.20
2006,06,26,10,26,26.40
2006,06,26,10,27,26.50
2006,06,26,10,28,26.60
2006,06,26,10,29,26.60
2006,06,26,10,30,26.60
2006,06,26,10,31,26.60
2006,06,26,10,32,26.70
2006,06,26,10,33,26.80
2006,06,26,10,34,26.80
2006,06,26,10,35,26.90
2006,06,26,10,36,26.90
2006,06,26,10,37,26.80
2006,06,26,10,38,26.70
2006,06,26,10,39,26.70
2006,06,26,10,40,26.90
2006,06,26,10,41,27.00
2006,06,26,10,42,27.20
2006,06,26,10,43,27.30
2006,06,26,10,44,27.30
2006,06,26,10,45,27.30
2006,06,26,10,46,27.40
2006,06,26,10,47,27.40
2006,06,26,10,48,27.40
2006,06,26,10,49,27.30
2006,06,26,10,50,27.20
2006,06,26,10,51,27.00
2006,06,26,10,52,26.90
2006,06,26,10,53,26.70
2006,06,26,10,54,26.50
2006,06,26,10,55,26.40
2006,06,26,10,56,26.40
2006,06,26,10,57,26.40
2006,06,26,10,58,26.50
2006,06,26,10,59,26.70
2006,06,26,11,00,27.00
2006,06,26,11,01,27.10
2006,06,26,11,02,27.20
2006,06,26,11,03,27.30
2006,06,26,11,04,27.30
2006,06,26,11,05,27.40
2006,06,26,11,06,27.40
2006,06,26,11,07,27.60
2006,06,26,11,08,27.60
2006,06,26,11,09,27.70
2006,06,26,11,10,27.70
2006,06,26,11,11,27.70
2006,06,26,11,12,27.70
2006,06,26,11,13,27.80
2006,06,26,11,14,27.80
2006,06,26,11,15,27.90
2006,06,26,11,16,27.90
2006,06,26,11,17,27.70
2006,06,26,11,18,27.50
2006,06,26,11,19,27.30
2006,06,26,11,20,27.40
2006,06,26,11,21,27.50
2006,06,26,11,22,27.70
2006,06,26,11,23,27.80
2006,06,26,11,24,28.00
2006,06,26,11,25,28.10
2006,06,26,11,26,28.20
2006,06,26,11,27,28.30
2006,06,26,11,28,28.40
2006,06,26,11,29,28.40
2006,06,26,11,30,28.40
2006,06,26,11,31,28.50
2006,06,26,11,32,28.60
2006,06,26,11,33,28.60
2006,06,26,11,34,28.60
2006,06,26,11,35,28.60
2006,06,26,11,36,28.60
2006,06,26,11,37,28.70
2006,06,26,11,38,28.70
2006,06,26,11,39,28.90
2006,06,26,11,40,28.70
2006,06,26,11,41,28.60
2006,06,26,11,42,28.50
2006,06,26,11,43,28.40
2006,06,26,11,44,28.50
2006,06,26,11,45,28.60
2006,06,26,11,46,28.60
2006,06,26,11,47,28.70
2006,06,26,11,48,28.70
2006,06,26,11,49,28.70
2006,06,26,11,50,28.70
2006,06,26,11,51,28.70
2006,06,26,11,52,28.70
2006,06,26,11,53,28.70
2006,06,26,11,54,28.70
2006,06,26,11,55,28.70
2006,06,26,11,56,28.40
2006,06,26,11,57,28.20
2006,06,26,11,58,28.20
2006,06,26,11,59,28.00
2006,06,26,12,00,28.00
2006,06,26,12,01,28.00
2006,06,26,12,02,28.00
2006,06,26,12,03,27.80
2006,06,26,12,04,27.60
2006,06,26,12,05,27.50
2006,06,26,12,06,27.60
2006,06,26,12,07,27.70
2006,06,26,12,08,27.90
2006,06,26,12,09,28.00
2006,06,26,12,10,28.20
2006,06,26,12,11,28.30
2006,06,26,12,12,28.30
2006,06,26,12,13,28.10
2006,06,26,12,14,27.90
2006,06,26,12,15,27.80
2006,06,26,12,16,27.80
2006,06,26,12,17,27.90
2006,06,26,12,18,28.00
2006,06,26,12,19,28.00
2006,06,26,12,20,28.00
2006,06,26,12,21,28.10
2006,06,26,12,22,28.10
2006,06,26,12,23,28.20
2006,06,26,12,24,28.30
2006,06,26,12,25,28.30
2006,06,26,12,26,28.30
2006,06,26,12,27,28.40
2006,06,26,12,28,28.50
2006,06,26,12,29,28.60
2006,06,26,12,30,28.60
2006,06,26,12,31,28.70
2006,06,26,12,32,28.70
2006,06,26,12,33,28.70
2006,06,26,12,34,28.50
2006,06,26,12,35,28.40
2006,06,26,12,36,28.40
2006,06,26,12,37,28.40
2006,06,26,12,38,28.30
2006,06,26,12,39,28.10
2006,06,26,12,40,27.90
2006,06,26,12,41,27.90
2006,06,26,12,42,28.00
2006,06,26,12,43,28.00
2006,06,26,12,44,28.20
2006,06,26,12,45,28.20
2006,06,26,12,46,28.30
2006,06,26,12,47,28.30
2006,06,26,12,48,28.40
2006,06,26,12,49,28.70
2006,06,26,12,50,28.80
2006,06,26,12,51,28.80
2006,06,26,12,52,28.90
2006,06,26,12,53,28.90
2006,06,26,12,54,28.90
2006,06,26,12,55,29.00
2006,06,26,12,56,29.00
2006,06,26,12,57,28.90
2006,06,26,12,58,28.90
2006,06,26,12,59,28.90
2006,06,26,13,00,28.90
2006,06,26,13,01,28.90
2006,06,26,13,02,28.90
2006,06,26,13,03,28.90
2006,06,26,13,04,29.10
2006,06,26,13,05,29.30
2006,06,26,13,06,29.30
2006,06,26,13,07,29.00
2006,06,26,13,08,28.90
2006,06,26,13,09,28.60
2006,06,26,13,10,28.50
2006,06,26,13,11,28.60
2006,06,26,13,12,28.80
2006,06,26,13,13,28.90
2006,06,26,13,14,28.90
2006,06,26,13,15,28.90
2006,06,26,13,16,28.90
2006,06,26,13,17,28.90
2006,06,26,13,18,28.80
2006,06,26,13,19,28.90
2006,06,26,13,20,28.80
2006,06,26,13,21,28.80
2006,06,26,13,22,28.70
2006,06,26,13,23,28.80
2006,06,26,13,24,28.70
2006,06,26,13,25,28.70
2006,06,26,13,26,28.70
2006,06,26,13,27,28.60
2006,06,26,13,28,28.60
2006,06,26,13,29,28.80
2006,06,26,13,30,28.90
2006,06,26,13,31,28.80
2006,06,26,13,32,28.80
2006,06,26,13,33,29.00
2006,06,26,13,34,29.20
2006,06,26,13,35,29.40
2006,06,26,13,36,29.50
2006,06,26,13,37,29.50
2006,06,26,13,38,29.50
2006,06,26,13,39,29.50
2006,06,26,13,40,29.50
2006,06,26,13,41,29.40
2006,06,26,13,42,29.40
2006,06,26,13,43,29.50
2006,06,26,13,44,29.40
2006,06,26,13,45,29.20
2006,06,26,13,46,29.10
2006,06,26,13,47,29.20
2006,06,26,13,48,29.30
2006,06,26,13,49,29.50
2006,06,26,13,50,29.70
2006,06,26,13,51,29.70
2006,06,26,13,52,29.90
2006,06,26,13,53,30.00
2006,06,26,13,54,30.20
2006,06,26,13,55,30.20
2006,06,26,13,56,30.20
2006,06,26,13,57,30.30
2006,06,26,13,58,30.30
2006,06,26,13,59,30.20
2006,06,26,14,00,30.10
2006,06,26,14,01,30.20
2006,06,26,14,02,30.20
2006,06,26,14,03,30.30
2006,06,26,14,04,30.30
2006,06,26,14,05,30.20
2006,06,26,14,06,30.10
2006,06,26,14,07,30.00
2006,06,26,14,08,29.80
2006,06,26,14,09,29.80
2006,06,26,14,10,29.70
2006,06,26,14,11,29.60
2006,06,26,14,12,29.70
2006,06,26,14,13,29.70
2006,06,26,14,14,29.40
2006,06,26,14,15,29.30
2006,06,26,14,16,29.30
2006,06,26,14,17,29.20
2006,06,26,14,18,29.10
2006,06,26,14,19,29.10
2006,06,26,14,20,29.10
2006,06,26,14,21,29.20
2006,06,26,14,22,29.30
2006,06,26,14,23,29.30
2006,06,26,14,24,29.50
2006,06,26,14,25,29.70
2006,06,26,14,26,29.70
2006,06,26,14,27,29.70
2006,06,26,14,28,29.30
2006,06,26,14,29,29.10
2006,06,26,14,30,28.90
2006,06,26,14,31,28.70
2006,06,26,14,32,28.40
2006,06,26,14,33,28.10
2006,06,26,14,34,27.90
2006,06,26,14,35,28.00
2006,06,26,14,36,28.10
2006,06,26,14,37,28.30
2006,06,26,14,38,28.40
2006,06,26,14,39,28.40
2006,06,26,14,40,28.40
2006,06,26,14,41,28.40
2006,06,26,14,42,28.40
2006,06,26,14,43,28.30
2006,06,26,14,44,28.40
2006,06,26,14,45,28.40
2006,06,26,14,46,28.40
2006,06,26,14,47,28.40
2006,06,26,14,48,28.50
2006,06,26,14,49,28.60
2006,06,26,14,50,28.70
2006,06,26,14,51,28.80
2006,06,26,14,52,28.90
2006,06,26,14,53,28.90
2006,06,26,14,54,28.90
2006,06,26,14,55,28.90
2006,06,26,14,56,28.80
2006,06,26,14,57,28.90
2006,06,26,14,58,28.90
2006,06,26,14,59,28.90
2006,06,26,15,00,28.90
2006,06,26,15,01,28.90
2006,06,26,15,02,28.90
2006,06,26,15,03,28.80
2006,06,26,15,04,28.70
2006,06,26,15,05,28.50
2006,06,26,15,06,28.50
2006,06,26,15,07,28.60
2006,06,26,15,08,28.70
2006,06,26,15,09,28.90
2006,06,26,15,10,29.00
2006,06,26,15,11,29.20
2006,06,26,15,12,29.10
2006,06,26,15,13,28.90
2006,06,26,15,14,28.90
2006,06,26,15,15,28.90
2006,06,26,15,16,29.10
2006,06,26,15,17,28.90
2006,06,26,15,18,28.90
2006,06,26,15,19,28.60
2006,06,26,15,20,28.40
2006,06,26,15,21,28.40
2006,06,26,15,22,28.50
2006,06,26,15,23,28.50
2006,06,26,15,24,28.50
2006,06,26,15,25,28.60
2006,06,26,15,26,28.80
2006,06,26,15,27,28.90
2006,06,26,15,28,29.10
2006,06,26,15,29,29.20
2006,06,26,15,30,29.30
2006,06,26,15,31,29.30
2006,06,26,15,32,29.30
2006,06,26,15,33,29.30
2006,06,26,15,34,29.30
2006,06,26,15,35,29.30
2006,06,26,15,36,29.30
2006,06,26,15,37,29.30
2006,06,26,15,38,29.40
2006,06,26,15,39,29.60
2006,06,26,15,40,29.60
2006,06,26,15,41,29.70
2006,06,26,15,42,29.80
2006,06,26,15,43,29.80
2006,06,26,15,44,29.80
2006,06,26,15,45,29.90
2006,06,26,15,46,29.90
2006,06,26,15,47,29.80
2006,06,26,15,48,29.70
2006,06,26,15,49,29.70
2006,06,26,15,50,29.70
2006,06,26,15,51,29.50
2006,06,26,15,52,29.40
2006,06,26,15,53,29.50
2006,06,26,15,54,29.70
2006,06,26,15,55,29.80
2006,06,26,15,56,29.80
2006,06,26,15,57,29.90
2006,06,26,15,58,30.00
2006,06,26,15,59,30.20
2006,06,26,16,00,30.20
2006,06,26,16,01,30.20
2006,06,26,16,02,30.20
2006,06,26,16,03,30.20
2006,06,26,16,04,30.20
2006,06,26,16,05,30.10
2006,06,26,16,06,29.90
2006,06,26,16,07,29.70
2006,06,26,16,08,29.60
2006,06,26,16,09,29.60
2006,06,26,16,10,29.70
2006,06,26,16,11,29.80
2006,06,26,16,12,29.70
2006,06,26,16,13,29.70
2006,06,26,16,14,29.80
2006,06,26,16,15,29.90
2006,06,26,16,16,30.10
2006,06,26,16,17,30.20
2006,06,26,16,18,30.30
2006,06,26,16,19,30.30
2006,06,26,16,20,30.40
2006,06,26,16,21,30.60
2006,06,26,16,22,30.60
2006,06,26,16,23,30.70
2006,06,26,16,24,30.70
2006,06,26,16,25,30.70
2006,06,26,16,26,30.80
2006,06,26,16,27,30.90
2006,06,26,16,28,31.00
2006,06,26,16,29,31.00
2006,06,26,16,30,30.80
2006,06,26,16,31,30.70
2006,06,26,16,32,30.70
2006,06,26,16,33,30.70
2006,06,26,16,34,30.70
2006,06,26,16,35,30.90
2006,06,26,16,36,31.00
2006,06,26,16,37,31.00
2006,06,26,16,38,31.00
2006,06,26,16,39,30.90
2006,06,26,16,40,30.80
2006,06,26,16,41,30.80
2006,06,26,16,42,30.80
2006,06,26,16,43,30.80
2006,06,26,16,44,30.90
2006,06,26,16,45,30.80
2006,06,26,16,46,30.80
2006,06,26,16,47,30.90
2006,06,26,16,48,30.90
2006,06,26,16,49,30.90
2006,06,26,16,50,30.90
2006,06,26,16,51,30.90
2006,06,26,16,52,31.00
2006,06,26,16,53,31.00
2006,06,26,16,54,31.00
2006,06,26,16,55,31.10
2006,06,26,16,56,31.10
2006,06,26,16,57,31.20
2006,06,26,16,58,31.10
2006,06,26,16,59,31.10
2006,06,26,17,00,31.20
2006,06,26,17,01,31.30
2006,06,26,17,02,31.40
2006,06,26,17,03,31.40
2006,06,26,17,04,31.30
2006,06,26,17,05,31.20
2006,06,26,17,06,31.30
2006,06,26,17,07,31.30
2006,06,26,17,08,31.30
2006,06,26,17,09,31.30
2006,06,26,17,10,31.30
2006,06,26,17,11,31.30
2006,06,26,17,12,31.30
2006,06,26,17,13,31.40
2006,06,26,17,14,31.60
2006,06,26,17,15,31.60
2006,06,26,17,16,31.50
2006,06,26,17,17,31.30
2006,06,26,17,18,31.40
2006,06,26,17,19,31.30